DAL438 KSLC-KJAC

Flight info

Callsign DAL438
Flight time 0h 41m
Altitude 31000
Route RUGGD3 HOLTR ELLKK MOSSS
Aircraft A320/M-SDE3FGHIRWY/LB1

Departure

Time 2026-05-07 22:50
Airport Salt Lake City International Airport (KSLC)

Arrival

Time 2026-05-07 23:32
Airport Jackson Hole Airport (KJAC)
Time Latitude Longitude Altitude Speed Heading
2026-05-07 20:51 40.78494 -111.98876 4231 ft 0 kts 354°
2026-05-07 22:37 40.78492 -111.98875 4230 ft 2 kts 354°
2026-05-07 22:37 40.78468 -111.98873 4231 ft 4 kts 351°
2026-05-07 22:37 40.78445 -111.98861 4231 ft 4 kts 308°
2026-05-07 22:37 40.78437 -111.98833 4231 ft 2 kts 264°
2026-05-07 22:38 40.78437 -111.98826 4231 ft 0 kts 264°
2026-05-07 22:40 40.78437 -111.98833 4231 ft 2 kts 264°
2026-05-07 22:40 40.78435 -111.98852 4231 ft 5 kts 264°
2026-05-07 22:41 40.78432 -111.98890 4231 ft 4 kts 265°
2026-05-07 22:41 40.78429 -111.98944 4231 ft 7 kts 265°
2026-05-07 22:41 40.78424 -111.99007 4231 ft 7 kts 265°
2026-05-07 22:41 40.78420 -111.99065 4231 ft 7 kts 265°
2026-05-07 22:42 40.78416 -111.99126 4231 ft 6 kts 265°
2026-05-07 22:42 40.78413 -111.99174 4231 ft 4 kts 265°
2026-05-07 22:42 40.78411 -111.99222 4231 ft 8 kts 268°
2026-05-07 22:42 40.78410 -111.99305 4231 ft 10 kts 276°
2026-05-07 22:43 40.78465 -111.99346 4231 ft 11 kts 355°
2026-05-07 22:43 40.78543 -111.99356 4231 ft 12 kts 354°
2026-05-07 22:43 40.78644 -111.99367 4231 ft 16 kts 355°
2026-05-07 22:43 40.78758 -111.99380 4232 ft 17 kts 355°
2026-05-07 22:44 40.78879 -111.99394 4231 ft 18 kts 355°
2026-05-07 22:44 40.79003 -111.99409 4231 ft 18 kts 355°
2026-05-07 22:44 40.79130 -111.99424 4231 ft 19 kts 355°
2026-05-07 22:44 40.79262 -111.99439 4231 ft 19 kts 355°
2026-05-07 22:45 40.79394 -111.99454 4231 ft 19 kts 355°
2026-05-07 22:45 40.79526 -111.99470 4231 ft 20 kts 355°
2026-05-07 22:45 40.79664 -111.99486 4231 ft 20 kts 355°
2026-05-07 22:45 40.79802 -111.99502 4231 ft 20 kts 355°
2026-05-07 22:46 40.79934 -111.99517 4231 ft 18 kts 355°
2026-05-07 22:46 40.80060 -111.99532 4231 ft 18 kts 355°
2026-05-07 22:46 40.80187 -111.99547 4231 ft 19 kts 355°
2026-05-07 22:46 40.80318 -111.99562 4231 ft 19 kts 355°
2026-05-07 22:47 40.80449 -111.99577 4231 ft 19 kts 355°
2026-05-07 22:47 40.80567 -111.99591 4231 ft 14 kts 355°
2026-05-07 22:47 40.80657 -111.99602 4231 ft 13 kts 355°
2026-05-07 22:47 40.80742 -111.99644 4231 ft 14 kts 320°
2026-05-07 22:48 40.80773 -111.99743 4231 ft 9 kts 268°
2026-05-07 22:48 40.80771 -111.99780 4231 ft 1 kts 265°
2026-05-07 22:48 40.80771 -111.99781 4231 ft 1 kts 265°
2026-05-07 22:48 40.80768 -111.99825 4230 ft 7 kts 265°
2026-05-07 22:49 40.80765 -111.99887 4230 ft 7 kts 266°
2026-05-07 22:49 40.80746 -111.99926 4231 ft 4 kts 198°
2026-05-07 22:49 40.80729 -111.99926 4231 ft 1 kts 175°
2026-05-07 22:49 40.80711 -111.99924 4231 ft 9 kts 176°
2026-05-07 22:50 40.80399 -111.99889 4232 ft 84 kts 175°
2026-05-07 22:50 40.79595 -111.99795 4229 ft 147 kts 175°
2026-05-07 22:50 40.78405 -111.99649 4299 ft 189 kts 175°
2026-05-07 22:50 40.77111 -111.99494 5071 ft 186 kts 175°
2026-05-07 22:51 40.75848 -111.99642 5799 ft 181 kts 211°
2026-05-07 22:51 40.74892 -112.00745 6136 ft 192 kts 245°
2026-05-07 22:51 40.74646 -112.02504 6300 ft 207 kts 281°
2026-05-07 22:51 40.75299 -112.04264 6418 ft 229 kts 314°
2026-05-07 22:52 40.76713 -112.05426 6633 ft 254 kts 337°
2026-05-07 22:52 40.78450 -112.06243 6948 ft 274 kts 339°
2026-05-07 22:52 40.80315 -112.06858 7584 ft 279 kts 349°
2026-05-07 22:52 40.82251 -112.07166 8442 ft 282 kts 350°
2026-05-07 22:53 40.84204 -112.07416 9337 ft 283 kts 351°
2026-05-07 22:53 40.86174 -112.07662 10144 ft 286 kts 351°
2026-05-07 22:53 40.88238 -112.07925 10422 ft 310 kts 351°
2026-05-07 22:53 40.90479 -112.07839 10650 ft 338 kts
2026-05-07 22:54 40.92768 -112.06904 11231 ft 348 kts 14°
2026-05-07 22:54 40.95083 -112.05896 11962 ft 352 kts 14°
2026-05-07 22:54 40.97417 -112.04875 12751 ft 355 kts 14°
2026-05-07 22:54 40.99772 -112.03846 13499 ft 358 kts 14°
2026-05-07 22:55 41.02095 -112.02574 14182 ft 366 kts 24°
2026-05-07 22:55 41.04173 -112.00645 14822 ft 376 kts 37°
2026-05-07 22:55 41.05930 -111.98030 15459 ft 385 kts 51°
2026-05-07 22:55 41.07228 -111.94878 16083 ft 393 kts 61°
2026-05-07 22:56 41.08376 -111.91575 16730 ft 396 kts 61°
2026-05-07 22:56 41.09538 -111.88242 17366 ft 400 kts 61°
2026-05-07 22:56 41.10725 -111.84888 18012 ft 403 kts 58°
2026-05-07 22:56 41.12225 -111.81777 18546 ft 399 kts 45°
2026-05-07 22:57 41.14147 -111.79161 19078 ft 394 kts 33°
2026-05-07 22:57 41.16390 -111.77115 19612 ft 389 kts 22°
2026-05-07 22:57 41.18852 -111.75695 20169 ft 384 kts 12°
2026-05-07 22:57 41.21440 -111.74902 20710 ft 381 kts
2026-05-07 22:58 41.24061 -111.74291 21255 ft 384 kts
2026-05-07 22:58 41.26700 -111.73671 21797 ft 386 kts
2026-05-07 22:58 41.29356 -111.73041 22315 ft 389 kts
2026-05-07 22:58 41.32030 -111.72404 22865 ft 391 kts
2026-05-07 22:59 41.34712 -111.71766 23337 ft 392 kts
2026-05-07 22:59 41.37407 -111.71125 23634 ft 395 kts
2026-05-07 22:59 41.40105 -111.70313 24011 ft 402 kts 10°
2026-05-07 22:59 41.42793 -111.69259 24411 ft 404 kts 10°
2026-05-07 23:00 41.45494 -111.68198 24798 ft 405 kts 10°
2026-05-07 23:00 41.48205 -111.67133 25203 ft 407 kts 10°
2026-05-07 23:00 41.50928 -111.66061 25607 ft 409 kts 10°
2026-05-07 23:00 41.53667 -111.64986 25984 ft 411 kts 10°
2026-05-07 23:01 41.56419 -111.63910 26363 ft 413 kts 10°
2026-05-07 23:01 41.59183 -111.62827 26730 ft 415 kts 10°
2026-05-07 23:01 41.61963 -111.61736 27091 ft 417 kts 10°
2026-05-07 23:01 41.64755 -111.60636 27421 ft 419 kts 10°
2026-05-07 23:02 41.67557 -111.59529 27767 ft 421 kts 10°
2026-05-07 23:02 41.70376 -111.58414 28123 ft 423 kts 10°
2026-05-07 23:02 41.73205 -111.57297 28405 ft 425 kts 10°
2026-05-07 23:02 41.76048 -111.56171 28717 ft 427 kts 10°
2026-05-07 23:03 41.78904 -111.55047 29011 ft 428 kts
2026-05-07 23:03 41.81765 -111.54267 29285 ft 425 kts
2026-05-07 23:03 41.84695 -111.53611 29611 ft 427 kts
2026-05-07 23:03 41.87631 -111.52954 29906 ft 429 kts
2026-05-07 23:04 41.90580 -111.52292 30177 ft 430 kts
2026-05-07 23:04 41.93541 -111.51623 30392 ft 431 kts
2026-05-07 23:04 41.96502 -111.50948 30645 ft 431 kts
2026-05-07 23:04 41.99458 -111.50272 30922 ft 430 kts
2026-05-07 23:05 42.02402 -111.49605 30983 ft 424 kts
2026-05-07 23:05 42.08140 -111.48305 30994 ft 415 kts
2026-05-07 23:06 42.13819 -111.47016 30991 ft 413 kts
2026-05-07 23:06 42.19493 -111.45723 30988 ft 412 kts
2026-05-07 23:07 42.25143 -111.44426 30984 ft 411 kts
2026-05-07 23:07 42.30770 -111.42920 30977 ft 417 kts 11°
2026-05-07 23:08 42.36226 -111.40242 30975 ft 420 kts 13°
2026-05-07 23:08 42.41707 -111.37514 30997 ft 419 kts 13°
2026-05-07 23:09 42.47178 -111.34799 30989 ft 418 kts 13°
2026-05-07 23:09 42.52644 -111.32082 30997 ft 418 kts 13°
2026-05-07 23:10 42.58095 -111.29365 31012 ft 417 kts 13°
2026-05-07 23:10 42.63538 -111.26640 31035 ft 416 kts 12°
2026-05-07 23:11 42.68978 -111.23911 30856 ft 416 kts 13°
2026-05-07 23:11 42.71690 -111.22550 30619 ft 414 kts 13°
2026-05-07 23:11 42.74352 -111.21211 30388 ft 412 kts 13°
2026-05-07 23:11 42.77047 -111.19851 30147 ft 412 kts 13°
2026-05-07 23:12 42.79729 -111.18495 29967 ft 410 kts 13°
2026-05-07 23:12 42.82403 -111.17145 29767 ft 410 kts 13°
2026-05-07 23:12 42.85071 -111.15803 29567 ft 408 kts 13°
2026-05-07 23:12 42.87738 -111.14464 29367 ft 408 kts 13°
2026-05-07 23:13 42.90392 -111.13095 29147 ft 409 kts 17°
2026-05-07 23:13 42.92930 -111.11279 28949 ft 416 kts 25°
2026-05-07 23:13 42.95275 -111.08923 28761 ft 421 kts 31°
2026-05-07 23:13 42.97560 -111.06432 28571 ft 420 kts 31°
2026-05-07 23:14 42.99837 -111.03948 28388 ft 418 kts 31°
2026-05-07 23:14 43.02109 -111.01468 28200 ft 417 kts 31°
2026-05-07 23:14 43.04373 -110.98996 28027 ft 416 kts 31°
2026-05-07 23:14 43.06621 -110.96539 27520 ft 411 kts 31°
2026-05-07 23:15 43.08845 -110.94106 26975 ft 408 kts 31°
2026-05-07 23:15 43.11027 -110.91723 26443 ft 405 kts 32°
2026-05-07 23:15 43.13216 -110.89331 25926 ft 401 kts 32°
2026-05-07 23:15 43.15394 -110.86949 25423 ft 398 kts 32°
2026-05-07 23:16 43.17551 -110.84591 24833 ft 396 kts 32°
2026-05-07 23:16 43.19699 -110.82243 24362 ft 394 kts 32°
2026-05-07 23:16 43.21833 -110.79903 23908 ft 391 kts 32°
2026-05-07 23:16 43.23946 -110.77582 23390 ft 389 kts 33°
2026-05-07 23:17 43.26048 -110.75271 22883 ft 386 kts 33°
2026-05-07 23:17 43.28136 -110.72970 22385 ft 383 kts 33°
2026-05-07 23:17 43.30207 -110.70685 21908 ft 381 kts 33°
2026-05-07 23:17 43.32267 -110.68409 21409 ft 379 kts 34°
2026-05-07 23:18 43.34314 -110.66149 20748 ft 375 kts 34°
2026-05-07 23:18 43.36342 -110.63913 20098 ft 373 kts 34°
2026-05-07 23:18 43.38357 -110.61691 19473 ft 370 kts 34°
2026-05-07 23:18 43.40360 -110.59480 18861 ft 369 kts 35°
2026-05-07 23:19 43.42360 -110.57271 18437 ft 367 kts 35°
2026-05-07 23:19 43.44344 -110.55075 17932 ft 365 kts 35°
2026-05-07 23:19 43.46295 -110.52911 17387 ft 364 kts 34°
2026-05-07 23:19 43.47624 -110.51436 17073 ft 363 kts 35°
2026-05-07 23:20 43.49586 -110.49256 16600 ft 361 kts 34°
2026-05-07 23:20 43.51539 -110.47087 16109 ft 361 kts 35°
2026-05-07 23:20 43.53492 -110.44912 15737 ft 360 kts 35°
2026-05-07 23:20 43.55410 -110.42768 15458 ft 349 kts 35°
2026-05-07 23:21 43.57269 -110.40684 15231 ft 341 kts 34°
2026-05-07 23:21 43.59105 -110.38632 14884 ft 339 kts 35°
2026-05-07 23:21 43.60936 -110.36589 14493 ft 339 kts 35°
2026-05-07 23:21 43.62765 -110.34547 14221 ft 334 kts 34°
2026-05-07 23:22 43.64552 -110.32548 14019 ft 328 kts 35°
2026-05-07 23:22 43.66389 -110.30754 13913 ft 316 kts 23°
2026-05-07 23:22 43.68415 -110.29693 13940 ft 309 kts
2026-05-07 23:22 43.70525 -110.29377 13768 ft 301 kts 353°
2026-05-07 23:23 43.72549 -110.29808 13556 ft 290 kts 340°
2026-05-07 23:23 43.74474 -110.30509 13377 ft 283 kts 341°
2026-05-07 23:23 43.76356 -110.31192 13192 ft 276 kts 341°
2026-05-07 23:23 43.78198 -110.31859 13028 ft 269 kts 341°
2026-05-07 23:24 43.79966 -110.32601 12918 ft 262 kts 330°
2026-05-07 23:24 43.81377 -110.34046 12793 ft 246 kts 308°
2026-05-07 23:24 43.82234 -110.36026 12606 ft 239 kts 289°
2026-05-07 23:24 43.82501 -110.38240 12308 ft 236 kts 269°
2026-05-07 23:25 43.82353 -110.40493 12045 ft 235 kts 265°
2026-05-07 23:25 43.82188 -110.42738 11789 ft 233 kts 265°
2026-05-07 23:25 43.82026 -110.44966 11536 ft 231 kts 266°
2026-05-07 23:25 43.81868 -110.47178 11284 ft 231 kts 266°
2026-05-07 23:26 43.81710 -110.49372 11106 ft 225 kts 266°
2026-05-07 23:26 43.81558 -110.51478 11017 ft 215 kts 266°
2026-05-07 23:26 43.81288 -110.53455 10947 ft 205 kts 254°
2026-05-07 23:26 43.80719 -110.55257 10681 ft 203 kts 249°
2026-05-07 23:27 43.79528 -110.58704 10188 ft 197 kts 248°
2026-05-07 23:27 43.78945 -110.60400 9959 ft 196 kts 248°
2026-05-07 23:27 43.78239 -110.62017 9715 ft 195 kts 235°
2026-05-07 23:28 43.77265 -110.63236 9535 ft 182 kts 224°
2026-05-07 23:28 43.76247 -110.64334 9346 ft 187 kts 225°
2026-05-07 23:28 43.75232 -110.65441 9128 ft 186 kts 223°
2026-05-07 23:28 43.74234 -110.66531 8921 ft 178 kts 219°
2026-05-07 23:29 43.73256 -110.67576 8748 ft 174 kts 214°
2026-05-07 23:29 43.72129 -110.68215 8667 ft 176 kts 202°
2026-05-07 23:29 43.71043 -110.68736 8501 ft 157 kts 204°
2026-05-07 23:29 43.70035 -110.69228 8305 ft 152 kts 205°
2026-05-07 23:30 43.69037 -110.69717 8099 ft 154 kts 203°
2026-05-07 23:30 43.68027 -110.70211 7892 ft 154 kts 206°
2026-05-07 23:30 43.67016 -110.70706 7682 ft 156 kts 206°
2026-05-07 23:30 43.65992 -110.71208 7487 ft 157 kts 205°
2026-05-07 23:31 43.64956 -110.71725 7313 ft 159 kts 204°
2026-05-07 23:31 43.63879 -110.72243 7004 ft 168 kts 202°
2026-05-07 23:31 43.62753 -110.72784 6774 ft 170 kts 199°
2026-05-07 23:31 43.61609 -110.73349 6486 ft 176 kts 199°
2026-05-07 23:32 43.60573 -110.73852 6421 ft 123 kts 199°
2026-05-07 23:32 43.60104 -110.74080 6418 ft 31 kts 199°
2026-05-07 23:32 43.59961 -110.74150 6418 ft 14 kts 192°
2026-05-07 23:32 43.59907 -110.74086 6419 ft 10 kts 108°
2026-05-07 23:33 43.59922 -110.74012 6422 ft 9 kts 31°
2026-05-07 23:33 43.59984 -110.73981 6420 ft 11 kts 19°
2026-05-07 23:33 43.60061 -110.73943 6420 ft 12 kts 19°
2026-05-07 23:33 43.60141 -110.73904 6418 ft 12 kts 19°
2026-05-07 23:34 43.60222 -110.73865 6418 ft 13 kts 19°
2026-05-07 23:34 43.60292 -110.73830 6418 ft 7 kts 19°
2026-05-07 23:34 43.60318 -110.73817 6418 ft 2 kts 19°
2026-05-07 23:34 43.60334 -110.73810 6420 ft 3 kts 20°
2026-05-07 23:35 43.60351 -110.73796 6420 ft 3 kts 45°
2026-05-07 23:35 43.60351 -110.73771 6422 ft 3 kts 106°
2026-05-07 23:35 43.60345 -110.73747 6423 ft 3 kts 108°
2026-05-07 23:35 43.60339 -110.73726 6419 ft 2 kts 109°
2026-05-07 23:36 43.60338 -110.73721 6420 ft 0 kts 109°